Location: McCloud Nature Park
(39.8272°N, 86.6824°W)
Time: 09:29:15
(UTC-05:00)

Amateur Radio Satellites - All Passes

Search period start: 02 October 2014 08:59
Search period end: 03 October 2014 08:59
Location: McCloud Nature Park, 39.8272°N, 86.6824°W

Satellite Date Start Highest point End Downlink Frequencies (MHz)
Time Altitude Azimuth
UKube-1 02 Oct 09:10:38 09:11:44 11° 91° (E) 09:12:49 145.840 MHz, 145.915 MHz
Sapphire 02 Oct 09:11:19 09:16:39 65° 115° (ESE) 09:22:01 437.095 MHz 1200 baud AX-25 AFSK
HO-68 02 Oct 09:35:17 09:42:21 57° 102° (ESE) 09:49:23 435.675 MHz FM
PCSat 02 Oct 09:36:43 09:42:06 72° 300° (WNW) 09:47:33 145.825 MHz
ZACube-1 02 Oct 09:52:47 09:54:07 11° 89° (E) 09:55:27 437.345 MHz
Oscar 11 02 Oct 10:13:19 10:17:29 46° 99° (E) 10:21:37 145.825 FM, Beacon 2401.500 USB
RS-15 02 Oct 10:37:17 10:48:14 58° 51° (NE) 10:59:34 29.354 - 29.394 USB, Beacon 29.352 USB
FUNcube-1 02 Oct 10:41:07 10:45:22 39° 97° (E) 10:49:30 145.950 - 145.970 MHz USB
UKube-1 02 Oct 10:43:59 10:48:19 64° 286° (WNW) 10:52:37 145.840 MHz, 145.915 MHz
Sapphire 02 Oct 10:56:34 11:00:32 20° 314° (NW) 11:04:32 437.095 MHz 1200 baud AX-25 AFSK
HO-68 02 Oct 11:23:43 11:29:37 29° 299° (WNW) 11:35:30 435.675 MHz FM
PCSat 02 Oct 11:24:04 11:26:31 13° 320° (NW) 11:28:57 145.825 MHz
ZACube-1 02 Oct 11:26:27 11:30:59 65° 285° (WNW) 11:35:22 437.345 MHz
Oscar 11 02 Oct 11:50:43 11:53:16 16° 295° (WNW) 11:55:49 145.825 FM, Beacon 2401.500 USB
Oscar 19 02 Oct 12:06:18 12:08:55 14° 61° (ENE) 12:11:33 437.125 CW, 437.150 USB
FUNcube-1 02 Oct 12:18:12 12:21:26 20° 294° (WNW) 12:24:37 145.950 - 145.970 MHz USB
Oscar 16 02 Oct 12:45:15 12:49:51 33° 68° (ENE) 12:54:28 437.025 USB, Beacon 2401.1428
AO-Echo 02 Oct 12:45:45 12:48:12 14° 62° (ENE) 12:50:40 ?
RS-15 02 Oct 12:50:06 13:00:14 42° 252° (WSW) 13:10:47 29.354 - 29.394 USB, Beacon 29.352 USB
AO-27 02 Oct 12:58:58 13:02:32 19° 63° (ENE) 13:06:07 436.795 MHz FM
Saudisat 1A 02 Oct 13:08:35 13:12:28 31° 114° (ESE) 13:16:22 436.775 MHz
Gurwin Techsat 1B 02 Oct 13:31:48 13:35:26 19° 63° (ENE) 13:39:04 435.225 FM
JAS-1B 02 Oct 13:33:44 13:41:12 62° 72° (ENE) 13:47:29 435.800 - 435.900 CW/SSB
Oscar 19 02 Oct 13:42:25 13:47:37 75° 257° (WSW) 13:52:49 437.125 CW, 437.150 USB
AO-7 02 Oct 13:54:02 13:57:41 14° 46° (NE) 14:01:20 29.400 - 29.500 MHz
ITAMSAT 1 02 Oct 13:57:34 14:02:41 65° 73° (ENE) 14:07:50 435.822 SSB
Uribyol 2 02 Oct 13:58:01 14:03:10 70° 74° (ENE) 14:08:22 436.500 FM
TMSAT-1 02 Oct 13:58:48 14:03:00 25° 65° (ENE) 14:07:12 436.925 FM
MaSat-1 02 Oct 14:05:05 14:07:18 17° 52° (NE) 14:09:20 437.345 MHz
AO-Echo 02 Oct 14:21:49 14:26:26 60° 259° (W) 14:31:08 ?
Oscar 16 02 Oct 14:24:42 14:29:10 29° 264° (W) 14:33:40 437.025 USB, Beacon 2401.1428
AO-27 02 Oct 14:36:34 14:41:37 53° 260° (W) 14:46:42 436.795 MHz FM
Saudisat 1A 02 Oct 14:48:15 14:52:02 28° 311° (NW) 14:55:51 436.775 MHz
Gurwin Techsat 1B 02 Oct 15:09:45 15:14:56 55° 260° (W) 15:20:10 435.225 FM
KITSAT 1 02 Oct 15:24:21 15:29:59 21° 103° (ESE) 15:35:36 435.175 FM
JAS-1B 02 Oct 15:26:28 15:32:02 22° 265° (W) 15:37:01 435.800 - 435.900 CW/SSB
TMSAT-1 02 Oct 15:37:41 15:42:39 41° 262° (W) 15:47:40 436.925 FM
ITAMSAT 1 02 Oct 15:39:53 15:42:37 14° 269° (W) 15:45:22 435.822 SSB
AO-7 02 Oct 15:40:42 15:48:49 62° 67° (ENE) 15:56:57 29.400 - 29.500 MHz
Uribyol 2 02 Oct 15:40:43 15:43:08 13° 270° (W) 15:45:34 436.500 FM
MaSat-1 02 Oct 15:41:14 15:43:40 20° 255° (WSW) 15:45:51 437.345 MHz
Uosat F 02 Oct 15:44:31 15:49:07 39° 69° (ENE) 15:53:45 435.120 FM
Oscar 10/S400 02 Oct 16:00:24 16:18:04 47° 155° (SSE) 16:50:23 145.825 - 145.975 CW/USB, Beacon 145.810 USB
JAS-2 02 Oct 16:15:06 16:17:38 14° 58° (ENE) 16:20:15 435.800 - 435.900 CW/SSB, 435.910 FM
PCSat 02 Oct 16:43:51 16:46:31 14° 41° (NE) 16:49:11 145.825 MHz
Hamsat 02 Oct 17:08:31 17:12:13 28° 70° (ENE) 17:15:53 145.90 MHz
KITSAT 1 02 Oct 17:16:22 17:24:27 79° 301° (WNW) 17:32:35 435.175 FM
Uosat F 02 Oct 17:24:05 17:28:00 23° 265° (W) 17:31:57 435.120 FM
AO-7 02 Oct 17:35:11 17:42:01 28° 265° (W) 17:48:55 29.400 - 29.500 MHz
OPAL 02 Oct 17:37:13 17:42:14 58° 103° (ESE) 17:47:09 ?
JAS-2 02 Oct 17:56:50 18:01:59 73° 258° (WSW) 18:07:26 435.800 - 435.900 CW/SSB, 435.910 FM
Sapphire 02 Oct 18:00:07 18:05:19 44° 56° (NE) 18:10:29 437.095 MHz 1200 baud AX-25 AFSK
SO-67 02 Oct 18:13:05 18:15:11 15° 68° (ENE) 18:17:17 435.3500 MHz FM
SO-50 02 Oct 18:25:11 18:29:17 37° 115° (ESE) 18:33:29 436.795 FM
PCSat 02 Oct 18:25:25 18:30:52 77° 61° (ENE) 18:36:16 145.825 MHz
STRAND 1 02 Oct 18:42:07 18:46:03 22° 94° (E) 18:49:57 ?
Hamsat 02 Oct 18:44:36 18:48:07 24° 265° (W) 18:51:38 145.90 MHz
KITSAT 1 02 Oct 19:15:16 19:21:12 22° 323° (NW) 19:27:09 435.175 FM
OPAL 02 Oct 19:17:20 19:20:37 18° 300° (WNW) 19:23:53 ?
AO-40 02 Oct 19:29:31 01:21:51 44° 182° (S) 07:17:24 Beacon 2401.320
Sapphire 02 Oct 19:44:06 19:48:28 25° 253° (WSW) 19:52:49 437.095 MHz 1200 baud AX-25 AFSK
SO-67 02 Oct 19:44:59 19:47:57 27° 264° (W) 19:50:57 435.3500 MHz FM
PANSAT 02 Oct 19:48:38 19:50:43 14° 174° (S) 19:52:48 not established
HO-68 02 Oct 20:03:09 20:09:39 40° 64° (ENE) 20:16:11 435.675 MHz FM
SO-50 02 Oct 20:06:09 20:09:55 26° 313° (NW) 20:13:47 436.795 FM
PCSat 02 Oct 20:11:00 20:13:33 14° 257° (WSW) 20:16:06 145.825 MHz
STRAND 1 02 Oct 20:20:32 20:25:24 43° 290° (WNW) 20:30:14 ?
UOSAT-12 02 Oct 20:23:04 20:27:31 51° 117° (ESE) 20:32:04 437.025 FM, 437.400 FM
ISS 02 Oct 20:27:22 20:29:29 16° 130° (SE) 20:31:37 145.800 FM
Oscar 11 02 Oct 21:07:39 21:11:34 34° 71° (ENE) 21:15:30 145.825 FM, Beacon 2401.500 USB
PANSAT 02 Oct 21:28:07 21:30:11 14° 187° (S) 21:32:15 not established
Saudisat 1A 02 Oct 21:35:53 21:39:27 23° 47° (NE) 21:43:00 436.775 MHz
FUNcube-1 02 Oct 21:36:41 21:40:38 30° 69° (ENE) 21:44:39 145.950 - 145.970 MHz USB
UKube-1 02 Oct 21:38:26 21:42:46 81° 257° (WSW) 21:47:08 145.840 MHz, 145.915 MHz
HO-68 02 Oct 21:50:44 21:57:18 39° 262° (W) 22:03:55 435.675 MHz FM
ISS 02 Oct 22:02:37 22:05:53 53° 326° (NW) 22:09:09 145.800 FM
UOSAT-12 02 Oct 22:04:22 22:07:57 22° 315° (NW) 22:11:35 437.025 FM, 437.400 FM
ZACube-1 02 Oct 22:21:35 22:26:08 89° 257° (WSW) 22:30:47 437.345 MHz
Oscar 11 02 Oct 22:44:33 22:47:48 20° 266° (W) 22:51:05 145.825 FM, Beacon 2401.500 USB
FUNcube-1 02 Oct 23:13:12 23:16:59 26° 265° (W) 23:20:50 145.950 - 145.970 MHz USB
Saudisat 1A 02 Oct 23:15:02 23:19:09 39° 244° (WSW) 23:23:15 436.775 MHz
KITSAT 1 02 Oct 23:16:33 23:20:31 14° 25° (NNE) 23:24:28 435.175 FM
ISS 02 Oct 23:41:13 23:43:10 15° 345° (NNW) 23:45:07 145.800 FM
Oscar 16 03 Oct 00:59:52 01:01:34 12° 89° (E) 01:03:15 437.025 USB, Beacon 2401.1428
RS-15 03 Oct 01:01:02 01:10:43 37° 107° (ESE) 01:20:14 29.354 - 29.394 USB, Beacon 29.352 USB
KITSAT 1 03 Oct 01:10:37 01:18:19 46° 51° (NE) 01:25:59 435.175 FM
ISS 03 Oct 01:19:51 01:20:59 11° 6° (N) 01:22:07 145.800 FM
JAS-1B 03 Oct 01:21:07 01:23:31 12° 91° (E) 01:25:58 435.800 - 435.900 CW/SSB
Oscar 19 03 Oct 01:55:03 01:59:54 41° 98° (E) 02:04:42 437.125 CW, 437.150 USB
ITAMSAT 1 03 Oct 02:11:51 02:16:06 25° 95° (E) 02:20:19 435.822 SSB
Uribyol 2 03 Oct 02:12:07 02:16:29 26° 95° (E) 02:20:50 436.500 FM
AO-Echo 03 Oct 02:29:15 02:34:07 45° 99° (E) 02:39:05 ?
Oscar 16 03 Oct 02:36:19 02:41:29 78° 285° (WNW) 02:46:35 437.025 USB, Beacon 2401.1428
AO-27 03 Oct 02:50:12 02:55:23 59° 101° (E) 03:00:31 436.795 MHz FM
ISS 03 Oct 02:55:47 02:58:36 25° 25° (NNE) 03:01:24 145.800 FM
SO-50 03 Oct 02:57:12 03:01:30 31° 49° (NE) 03:05:50 436.795 FM
KITSAT 1 03 Oct 03:06:12 03:13:38 42° 250° (WSW) 03:21:02 435.175 FM
JAS-1B 03 Oct 03:09:00 03:14:43 78° 286° (WNW) 03:21:01 435.800 - 435.900 CW/SSB
RS-15 03 Oct 03:11:33 03:22:25 62° 308° (NW) 03:33:16 29.354 - 29.394 USB, Beacon 29.352 USB
OPAL 03 Oct 03:15:59 03:18:16 13° 57° (ENE) 03:20:32 ?
Gurwin Techsat 1B 03 Oct 03:26:36 03:31:54 64° 101° (ESE) 03:37:09 435.225 FM
Oscar 19 03 Oct 03:34:58 03:38:58 24° 295° (WNW) 03:42:57 437.125 CW, 437.150 USB
AO-7 03 Oct 03:44:35 03:50:14 20° 92° (E) 03:55:50 29.400 - 29.500 MHz
MaSat-1 03 Oct 03:48:45 03:50:21 12° 101° (ESE) 03:51:57 437.345 MHz
ITAMSAT 1 03 Oct 03:50:50 03:55:40 39° 291° (WNW) 04:00:30 435.822 SSB
Uribyol 2 03 Oct 03:51:14 03:56:00 37° 291° (WNW) 04:00:44 436.500 FM
TMSAT-1 03 Oct 03:53:52 03:59:12 84° 103° (ESE) 04:04:30 436.925 FM
Uosat F 03 Oct 03:54:54 03:56:55 12° 90° (E) 03:58:55 435.120 FM
AO-Echo 03 Oct 04:08:48 04:12:34 22° 294° (WNW) 04:16:25 ?
AO-27 03 Oct 04:30:59 04:34:24 18° 298° (WNW) 04:37:49 436.795 MHz FM
ISS 03 Oct 04:32:13 04:35:25 46° 223° (SW) 04:38:36 145.800 FM
SO-50 03 Oct 04:37:43 04:42:03 33° 246° (WSW) 04:46:24 436.795 FM
OPAL 03 Oct 04:51:10 04:56:24 86° 254° (WSW) 05:01:39 ?
UOSAT-12 03 Oct 04:53:27 04:57:51 37° 51° (NE) 05:02:10 437.025 FM, 437.400 FM
JAS-2 03 Oct 05:06:08 05:10:45 18° 91° (E) 05:15:35 435.800 - 435.900 CW/SSB, 435.910 FM
Gurwin Techsat 1B 03 Oct 05:08:01 05:11:19 17° 298° (WNW) 05:14:37 435.225 FM
MaSat-1 03 Oct 05:21:24 05:26:14 76° 296° (WNW) 05:30:50 437.345 MHz
RS-15 03 Oct 05:29:30 05:37:38 23° 337° (NNW) 05:45:51 29.354 - 29.394 USB, Beacon 29.352 USB
Uosat F 03 Oct 05:31:09 05:36:11 72° 286° (WNW) 05:41:12 435.120 FM
AO-7 03 Oct 05:35:31 05:43:50 83° 290° (WNW) 05:52:08 29.400 - 29.500 MHz
TMSAT-1 03 Oct 05:36:04 05:38:22 13° 300° (WNW) 05:40:41 436.925 FM
STRAND 1 03 Oct 05:57:19 06:01:40 29° 67° (ENE) 06:06:03 ?
Hamsat 03 Oct 06:30:07 06:34:17 62° 100° (E) 06:38:24 145.90 MHz
UOSAT-12 03 Oct 06:33:57 06:37:49 26° 248° (WSW) 06:41:37 437.025 FM, 437.400 FM
JAS-2 03 Oct 06:49:23 06:56:13 81° 285° (WNW) 07:03:47 435.800 - 435.900 CW/SSB, 435.910 FM
MaSat-1 03 Oct 07:02:33 07:03:17 10° 312° (NW) 07:04:01 437.345 MHz
SO-67 03 Oct 07:09:19 07:11:51 19° 94° (E) 07:14:23 435.3500 MHz FM
AO-7 03 Oct 07:30:09 07:35:24 19° 309° (NW) 07:40:41 29.400 - 29.500 MHz
STRAND 1 03 Oct 07:36:15 07:40:46 32° 263° (W) 07:45:19 ?
RS-15 03 Oct 07:48:13 07:55:42 20° 14° (NNE) 08:03:18 29.354 - 29.394 USB, Beacon 29.352 USB
Hamsat 03 Oct 08:08:24 08:09:41 11° 297° (WNW) 08:10:59 145.90 MHz
JAS-2 03 Oct 08:36:45 08:40:25 15° 301° (WNW) 08:44:16 435.800 - 435.900 CW/SSB, 435.910 FM
Sapphire 03 Oct 08:41:08 08:46:16 46° 112° (ESE) 08:51:26 437.095 MHz 1200 baud AX-25 AFSK
SO-67 03 Oct 08:42:06 08:44:47 21° 290° (WNW) 08:47:28 435.3500 MHz FM
